Zeit;wasserstand;wasserstand_status;abfluss;abfluss_status
1984-11-01 00:00:00;586.0;0;1.9289;0
1984-11-02 00:00:00;584.0;0;1.8765;0
1984-11-03 00:00:00;581.0;0;1.8295;0
1984-11-04 00:00:00;578.0;0;1.7693;0
1984-11-05 00:00:00;576.0;0;1.7134;0
1984-11-06 00:00:00;572.0;0;1.6297;0
1984-11-07 00:00:00;570.0;0;1.5957;0
1984-11-08 00:00:00;572.0;0;1.6566;0
1984-11-09 00:00:00;572.0;0;1.6566;0
1984-11-10 00:00:00;569.0;0;1.6021;0
1984-11-11 00:00:00;567.0;0;1.548;0
1984-11-12 00:00:00;567.0;0;1.5529;0
1984-11-13 00:00:00;565.0;0;1.503;0
1984-11-14 00:00:00;569.0;0;1.6012;0
1984-11-15 00:00:00;567.0;0;1.5777;0
1984-11-16 00:00:00;562.0;0;1.4708;0
1984-11-17 00:00:00;559.0;0;1.4014;0
1984-11-18 00:00:00;558.0;0;1.3699;0
1984-11-19 00:00:00;557.0;0;1.3737;0
1984-11-20 00:00:00;556.0;0;1.3651;0
1984-11-21 00:00:00;557.0;0;1.3894;0
1984-11-22 00:00:00;570.0;0;1.7112;0
1984-11-23 00:00:00;614.0;0;2.9139;0
1984-11-24 00:00:00;628.0;0;3.281;0
1984-11-25 00:00:00;630.0;0;3.3474;0
1984-11-26 00:00:00;607.0;0;2.7419;0
1984-11-27 00:00:00;591.0;0;2.3521;0
1984-11-28 00:00:00;583.0;0;2.1157;0
1984-11-29 00:00:00;575.0;0;1.9045;0
1984-11-30 00:00:00;571.0;0;1.8048;0
1984-12-01 00:00:00;567.0;0;1.6953;0
1984-12-02 00:00:00;564.0;0;1.6384;0
1984-12-03 00:00:00;561.0;0;1.5913;0
1984-12-04 00:00:00;560.0;0;1.5468;0
1984-12-05 00:00:00;558.0;0;1.5057;0
1984-12-06 00:00:00;557.0;0;1.4745;0
1984-12-07 00:00:00;556.0;0;1.4767;0
1984-12-08 00:00:00;556.0;0;1.4798;0
1984-12-09 00:00:00;561.0;0;1.6145;0
1984-12-10 00:00:00;561.0;0;1.6089;0
1984-12-11 00:00:00;563.0;0;1.6646;0
1984-12-12 00:00:00;562.0;0;1.6623;0
1984-12-13 00:00:00;559.0;0;1.5953;0
1984-12-14 00:00:00;556.0;0;1.512;0
1984-12-15 00:00:00;553.0;0;1.4602;0
1984-12-16 00:00:00;551.0;0;1.4212;0
1984-12-17 00:00:00;549.0;0;1.3614;0
1984-12-18 00:00:00;550.0;0;1.3995;0
1984-12-19 00:00:00;549.0;0;1.3932;0
1984-12-20 00:00:00;557.0;0;1.6152;0
1984-12-21 00:00:00;585.0;0;2.5205;0
1984-12-22 00:00:00;592.0;0;2.7792;0
1984-12-23 00:00:00;577.0;0;2.338;0
1984-12-24 00:00:00;570.0;0;2.1758;0
1984-12-25 00:00:00;565.0;0;2.049;0
1984-12-26 00:00:00;561.0;0;1.972;0
1984-12-27 00:00:00;560.0;0;1.9967;0
1984-12-28 00:00:00;556.0;0;1.8804;0
1984-12-29 00:00:00;554.0;0;1.8673;0
1984-12-30 00:00:00;553.0;0;1.8506;0
1984-12-31 00:00:00;551.0;0;1.8387;0
1985-01-01 00:00:00;551.0;0;1.8592;0
1985-01-02 00:00:00;549.0;0;1.8384;0
1985-01-03 00:00:00;548.0;0;1.8148;0
1985-01-04 00:00:00;546.0;0;1.7828;0
1985-01-05 00:00:00;545.0;0;1.7786;0
1985-01-06 00:00:00;544.0;0;1.7977;0
1985-01-07 00:00:00;542.0;0;1.768;0
1985-01-08 00:00:00;541.0;0;1.7375;0
1985-01-09 00:00:00;539.0;0;1.6746;0
1985-01-10 00:00:00;536.0;0;1.6171;0
1985-01-11 00:00:00;533.0;0;1.5189;0
1985-01-12 00:00:00;531.0;0;1.4445;0
1985-01-13 00:00:00;529.0;0;1.3685;0
1985-01-14 00:00:00;526.0;0;1.2821;0
1985-01-15 00:00:00;524.0;0;1.189;0
1985-01-16 00:00:00;525.0;0;1.2561;0
1985-01-17 00:00:00;524.0;0;1.251;0
1985-01-18 00:00:00;524.0;0;1.2474;0
1985-01-19 00:00:00;523.0;0;1.2342;0
1985-01-20 00:00:00;523.0;0;1.2302;0
1985-01-21 00:00:00;524.0;0;1.2853;0
1985-01-22 00:00:00;530.0;0;1.604;0
1985-01-23 00:00:00;546.0;0;2.3594;0
1985-01-24 00:00:00;538.0;0;1.9928;0
1985-01-25 00:00:00;533.0;0;1.7505;0
1985-01-26 00:00:00;530.0;0;1.6094;0
1985-01-27 00:00:00;529.0;0;1.5572;0
1985-01-28 00:00:00;526.0;0;1.4413;0
1985-01-29 00:00:00;525.0;0;1.3926;0
1985-01-30 00:00:00;611.0;0;5.9497;0
1985-01-31 00:00:00;612.0;0;5.9497;0
1985-02-01 00:00:00;587.0;0;4.5906;0
1985-02-02 00:00:00;571.0;0;3.7473;0
1985-02-03 00:00:00;559.0;0;3.085;0
1985-02-04 00:00:00;550.0;0;2.6132;0
1985-02-05 00:00:00;547.0;0;2.4726;0
1985-02-06 00:00:00;549.0;0;2.5661;0
1985-02-07 00:00:00;544.0;0;2.344;0
1985-02-08 00:00:00;539.0;0;2.087;0
1985-02-09 00:00:00;536.0;0;1.9182;0
1985-02-10 00:00:00;533.0;0;1.7972;0
1985-02-11 00:00:00;530.0;0;1.6423;0
1985-02-12 00:00:00;528.0;0;1.5495;0
1985-02-13 00:00:00;528.0;0;1.5396;0
1985-02-14 00:00:00;526.0;0;1.4494;0
1985-02-15 00:00:00;524.0;0;1.3523;0
1985-02-16 00:00:00;525.0;0;1.3917;0
1985-02-17 00:00:00;525.0;0;1.3918;0
1985-02-18 00:00:00;523.0;0;1.3127;0
1985-02-19 00:00:00;522.0;0;1.2637;0
1985-02-20 00:00:00;520.0;0;1.1894;0
1985-02-21 00:00:00;520.0;0;1.1719;0
1985-02-22 00:00:00;520.0;0;1.1719;0
1985-02-23 00:00:00;520.0;0;1.1719;0
1985-02-24 00:00:00;520.0;0;1.1783;0
1985-02-25 00:00:00;520.0;0;1.1847;0
1985-02-26 00:00:00;520.0;0;1.1847;0
1985-02-27 00:00:00;520.0;0;1.1847;0
1985-02-28 00:00:00;520.0;0;1.1847;0
1985-03-01 00:00:00;520.0;0;1.1847;0
1985-03-02 00:00:00;519.0;0;1.1495;0
1985-03-03 00:00:00;520.0;0;1.1847;0
1985-03-04 00:00:00;520.0;0;1.1847;0
1985-03-05 00:00:00;522.0;0;1.2913;0
1985-03-06 00:00:00;523.0;0;1.3031;0
1985-03-07 00:00:00;536.0;0;1.9959;0
1985-03-08 00:00:00;535.0;0;1.9103;0
1985-03-09 00:00:00;530.0;0;1.6827;0
1985-03-10 00:00:00;528.0;0;1.5908;0
1985-03-11 00:00:00;530.0;0;1.6505;0
1985-03-12 00:00:00;528.0;0;1.5543;0
1985-03-13 00:00:00;527.0;0;1.5421;0
1985-03-14 00:00:00;529.0;0;1.647;0
1985-03-15 00:00:00;533.0;0;1.837;0
1985-03-16 00:00:00;530.0;0;1.676;0
1985-03-17 00:00:00;528.0;0;1.5729;0
1985-03-18 00:00:00;527.0;0;1.5115;0
1985-03-19 00:00:00;527.0;0;1.5421;0
1985-03-20 00:00:00;528.0;0;1.5914;0
1985-03-21 00:00:00;531.0;0;1.7194;0
1985-03-22 00:00:00;530.0;0;1.68;0
1985-03-23 00:00:00;529.0;0;1.6181;0
1985-03-24 00:00:00;527.0;0;1.5503;0
1985-03-25 00:00:00;527.0;0;1.5606;0
1985-03-26 00:00:00;529.0;0;1.6478;0
1985-03-27 00:00:00;541.0;0;2.2506;0
1985-03-28 00:00:00;539.0;0;2.1389;0
1985-03-29 00:00:00;532.0;0;1.8263;0
1985-03-30 00:00:00;569.0;0;3.7786;0
1985-03-31 00:00:00;584.0;0;4.6578;0
1985-04-01 00:00:00;568.0;0;3.725;0
1985-04-02 00:00:00;576.0;0;4.1572;0
1985-04-03 00:00:00;563.0;0;3.4244;0
1985-04-04 00:00:00;556.0;0;3.0609;0
1985-04-05 00:00:00;549.0;0;2.6856;0
1985-04-06 00:00:00;545.0;0;2.471;0
1985-04-07 00:00:00;542.0;0;2.3154;0
1985-04-08 00:00:00;541.0;0;2.2871;0
1985-04-09 00:00:00;545.0;0;2.4953;0
1985-04-10 00:00:00;542.0;0;2.3091;0
1985-04-11 00:00:00;539.0;0;2.1808;0
1985-04-12 00:00:00;538.0;0;2.1268;0
1985-04-13 00:00:00;538.0;0;2.1184;0
1985-04-14 00:00:00;540.0;0;2.196;0
1985-04-15 00:00:00;537.0;0;2.0796;0
1985-04-16 00:00:00;533.0;0;1.8845;0
1985-04-17 00:00:00;531.0;0;1.775;0
1985-04-18 00:00:00;530.0;0;1.6968;0
1985-04-19 00:00:00;529.0;0;1.6525;0
1985-04-20 00:00:00;528.0;0;1.642;0
1985-04-21 00:00:00;526.0;0;1.5249;0
1985-04-22 00:00:00;525.0;0;1.4544;0
1985-04-23 00:00:00;526.0;0;1.5334;0
1985-04-24 00:00:00;524.0;0;1.3946;0
1985-04-25 00:00:00;525.0;0;1.4543;0
1985-04-26 00:00:00;524.0;0;1.4171;0
1985-04-27 00:00:00;526.0;0;1.4986;0
1985-04-28 00:00:00;528.0;0;1.6336;0
1985-04-29 00:00:00;538.0;0;2.1125;0
1985-04-30 00:00:00;539.0;0;2.2083;0
1985-05-01 00:00:00;532.0;0;1.8454;0
1985-05-02 00:00:00;536.0;0;2.0264;0
1985-05-03 00:00:00;533.0;0;1.8967;0
1985-05-04 00:00:00;530.0;0;1.7047;0
1985-05-05 00:00:00;530.0;0;1.6791;0
1985-05-06 00:00:00;527.0;0;1.5524;0
1985-05-07 00:00:00;525.0;0;1.433;0
1985-05-08 00:00:00;522.0;0;1.3031;0
1985-05-09 00:00:00;520.0;0;1.2038;0
1985-05-10 00:00:00;520.0;0;1.1974;0
1985-05-11 00:00:00;520.0;0;1.1974;0
1985-05-12 00:00:00;519.0;0;1.1636;0
1985-05-13 00:00:00;518.0;0;1.1007;0
1985-05-14 00:00:00;518.0;0;1.0813;0
1985-05-15 00:00:00;517.0;0;1.0525;0
1985-05-16 00:00:00;517.0;0;1.0333;0
1985-05-17 00:00:00;517.0;0;1.0333;0
1985-05-18 00:00:00;517.0;0;1.0277;0
1985-05-19 00:00:00;517.0;0;1.0146;0
1985-05-20 00:00:00;516.0;0;0.9809;0
1985-05-21 00:00:00;516.0;0;0.9608;0
1985-05-22 00:00:00;515.0;0;0.9206;0
1985-05-23 00:00:00;516.0;0;0.9336;0
1985-05-24 00:00:00;514.0;0;0.8779;0
1985-05-25 00:00:00;514.0;0;0.8532;0
1985-05-26 00:00:00;514.0;0;0.8434;0
1985-05-27 00:00:00;514.0;0;0.8298;0
1985-05-28 00:00:00;514.0;0;0.8389;0
1985-05-29 00:00:00;515.0;0;0.8497;0
1985-05-30 00:00:00;514.0;0;0.8239;0
1985-05-31 00:00:00;514.0;0;0.8105;0
1985-06-01 00:00:00;511.0;0;0.7146;0
1985-06-02 00:00:00;512.0;0;0.733;0
1985-06-03 00:00:00;513.0;0;0.7554;0
1985-06-04 00:00:00;512.0;0;0.7437;0
1985-06-05 00:00:00;512.0;0;0.737;0
1985-06-06 00:00:00;512.0;0;0.7387;0
1985-06-07 00:00:00;516.0;0;0.8743;0
1985-06-08 00:00:00;517.0;0;0.9392;0
1985-06-09 00:00:00;516.0;0;0.8842;0
1985-06-10 00:00:00;517.0;0;0.9324;0
1985-06-11 00:00:00;514.0;0;0.8246;0
1985-06-12 00:00:00;516.0;0;0.8916;0
1985-06-13 00:00:00;518.0;0;0.9772;0
1985-06-14 00:00:00;517.0;0;0.9305;0
1985-06-15 00:00:00;519.0;0;1.0034;0
1985-06-16 00:00:00;519.0;0;0.9974;0
1985-06-17 00:00:00;517.0;0;0.9278;0
1985-06-18 00:00:00;517.0;0;0.9364;0
1985-06-19 00:00:00;517.0;0;0.921;0
1985-06-20 00:00:00;516.0;0;0.8956;0
1985-06-21 00:00:00;516.0;0;0.8634;0
1985-06-22 00:00:00;516.0;0;0.8668;0
1985-06-23 00:00:00;516.0;0;0.8803;0
1985-06-24 00:00:00;516.0;0;0.8749;0
1985-06-25 00:00:00;517.0;0;0.925;0
1985-06-26 00:00:00;519.0;0;0.973;0
1985-06-27 00:00:00;533.0;0;1.5757;0
1985-06-28 00:00:00;523.0;0;1.1431;0
1985-06-29 00:00:00;521.0;0;1.0515;0
1985-06-30 00:00:00;521.0;0;1.0299;0
1985-07-01 00:00:00;521.0;0;0.9988;0
1985-07-02 00:00:00;520.0;0;0.9508;0
1985-07-03 00:00:00;519.0;0;0.8992;0
1985-07-04 00:00:00;520.0;0;0.8989;0
1985-07-05 00:00:00;520.0;0;0.8914;0
1985-07-06 00:00:00;521.0;0;0.8705;0
1985-07-07 00:00:00;520.0;0;0.8418;0
1985-07-08 00:00:00;521.0;0;0.8276;0
1985-07-09 00:00:00;522.0;0;0.8395;0
1985-07-10 00:00:00;523.0;0;0.8106;0
1985-07-11 00:00:00;522.0;0;0.7497;0
1985-07-12 00:00:00;523.0;0;0.7614;0
1985-07-13 00:00:00;523.0;0;0.7348;0
1985-07-14 00:00:00;523.0;0;0.7248;0
1985-07-15 00:00:00;532.0;0;0.9374;0
1985-07-16 00:00:00;530.0;0;0.8888;0
1985-07-17 00:00:00;524.0;0;0.7222;0
1985-07-18 00:00:00;538.0;0;1.0693;0
1985-07-19 00:00:00;533.0;0;0.9118;0
1985-07-20 00:00:00;530.0;0;0.835;0
1985-07-21 00:00:00;531.0;0;0.8273;0
1985-07-22 00:00:00;530.0;0;0.8102;0
1985-07-23 00:00:00;540.0;0;1.0384;0
1985-07-24 00:00:00;532.0;0;0.8412;0
1985-07-25 00:00:00;534.0;0;0.859;0
1985-07-26 00:00:00;533.0;0;0.826;0
1985-07-27 00:00:00;537.0;0;0.9045;0
1985-07-28 00:00:00;540.0;0;0.9451;0
1985-07-29 00:00:00;540.0;0;0.9416;0
1985-07-30 00:00:00;544.0;0;1.0117;0
1985-07-31 00:00:00;545.0;0;1.0253;0
1985-08-01 00:00:00;551.0;0;1.1538;0
1985-08-02 00:00:00;550.0;0;1.1069;0
1985-08-03 00:00:00;548.0;0;1.0573;0
1985-08-04 00:00:00;559.0;0;1.3007;0
1985-08-05 00:00:00;565.0;0;1.4088;0
1985-08-06 00:00:00;578.0;0;1.6767;0
1985-08-07 00:00:00;570.0;0;1.5059;0
1985-08-08 00:00:00;565.0;0;1.3601;0
1985-08-09 00:00:00;559.0;0;1.221;0
1985-08-10 00:00:00;558.0;0;1.1885;0
1985-08-11 00:00:00;566.0;0;1.3087;0
1985-08-12 00:00:00;568.0;0;1.3138;0
1985-08-13 00:00:00;564.0;0;1.1742;0
1985-08-14 00:00:00;561.0;0;1.0697;0
1985-08-15 00:00:00;568.0;0;1.1567;0
1985-08-16 00:00:00;569.0;0;1.114;0
1985-08-17 00:00:00;574.0;0;1.1394;0
1985-08-18 00:00:00;576.0;0;1.1234;0
1985-08-19 00:00:00;580.0;0;1.1133;0
1985-08-20 00:00:00;587.0;0;1.1661;0
1985-08-21 00:00:00;589.0;0;1.1677;0
1985-08-22 00:00:00;588.0;0;1.1294;0
1985-08-23 00:00:00;585.0;0;1.0586;0
1985-08-24 00:00:00;583.0;0;1.0075;0
1985-08-25 00:00:00;583.0;0;1.0108;0
1985-08-26 00:00:00;583.0;0;1.0161;0
1985-08-27 00:00:00;582.0;0;0.9963;0
1985-08-28 00:00:00;579.0;0;0.9807;0
1985-08-29 00:00:00;576.0;0;0.9519;0
1985-08-30 00:00:00;579.0;0;0.9773;0
1985-08-31 00:00:00;580.0;0;1.0125;0
1985-09-01 00:00:00;577.0;0;0.9871;0
1985-09-02 00:00:00;567.0;0;0.9675;0
1985-09-03 00:00:00;558.0;0;1.0293;0
1985-09-04 00:00:00;564.0;0;1.2432;0
1985-09-05 00:00:00;561.0;0;1.2212;0
1985-09-06 00:00:00;569.0;0;1.4031;0
1985-09-07 00:00:00;566.0;0;1.3468;0
1985-09-08 00:00:00;565.0;0;1.3083;0
1985-09-09 00:00:00;559.0;0;1.186;0
1985-09-10 00:00:00;556.0;0;1.1274;0
1985-09-11 00:00:00;559.0;0;1.1922;0
1985-09-12 00:00:00;555.0;0;1.116;0
1985-09-13 00:00:00;553.0;0;1.0619;0
1985-09-14 00:00:00;551.0;0;1.0206;0
1985-09-15 00:00:00;556.0;0;1.1347;0
1985-09-16 00:00:00;568.0;0;1.3884;0
1985-09-17 00:00:00;604.0;0;2.2002;0
1985-09-18 00:00:00;598.0;0;2.0752;0
1985-09-19 00:00:00;578.0;0;1.6236;0
1985-09-20 00:00:00;570.0;0;1.4562;0
1985-09-21 00:00:00;566.0;0;1.3874;0
1985-09-22 00:00:00;571.0;0;1.5187;0
1985-09-23 00:00:00;574.0;0;1.5811;0
1985-09-24 00:00:00;571.0;0;1.5241;0
1985-09-25 00:00:00;571.0;0;1.5177;0
1985-09-26 00:00:00;568.0;0;1.4456;0
1985-09-27 00:00:00;565.0;0;1.3921;0
1985-09-28 00:00:00;562.0;0;1.3201;0
1985-09-29 00:00:00;560.0;0;1.2816;0
1985-09-30 00:00:00;559.0;0;1.254;0
1985-10-01 00:00:00;557.0;0;1.2115;0
1985-10-02 00:00:00;556.0;0;1.192;0
1985-10-03 00:00:00;555.0;0;1.1682;0
1985-10-04 00:00:00;554.0;0;1.1533;0
1985-10-05 00:00:00;553.0;0;1.1401;0
1985-10-06 00:00:00;552.0;0;1.1077;0
1985-10-07 00:00:00;552.0;0;1.1245;0
1985-10-08 00:00:00;558.0;0;1.2665;0
1985-10-09 00:00:00;569.0;0;1.4844;0
1985-10-10 00:00:00;567.0;0;1.4383;0
1985-10-11 00:00:00;563.0;0;1.3853;0
1985-10-12 00:00:00;562.0;0;1.3475;0
1985-10-13 00:00:00;557.0;0;1.257;0
1985-10-14 00:00:00;555.0;0;1.2007;0
1985-10-15 00:00:00;553.0;0;1.1682;0
1985-10-16 00:00:00;552.0;0;1.1404;0
1985-10-17 00:00:00;552.0;0;1.1395;0
1985-10-18 00:00:00;551.0;0;1.1251;0
1985-10-19 00:00:00;550.0;0;1.1045;0
1985-10-20 00:00:00;549.0;0;1.0822;0
1985-10-21 00:00:00;548.0;0;1.0721;0
1985-10-22 00:00:00;547.0;0;1.0651;0
1985-10-23 00:00:00;547.0;0;1.0542;0
1985-10-24 00:00:00;546.0;0;1.0512;0
1985-10-25 00:00:00;545.0;0;1.0524;0
1985-10-26 00:00:00;545.0;0;1.0553;0
1985-10-27 00:00:00;544.0;0;1.0503;0
1985-10-28 00:00:00;544.0;0;1.0688;0
1985-10-29 00:00:00;544.0;0;1.0788;0
1985-10-30 00:00:00;544.0;0;1.0838;0
1985-10-31 00:00:00;544.0;0;1.0866;0
1985-11-01 00:00:00;543.0;0;1.0737;0
1985-11-02 00:00:00;547.0;0;1.1595;0
1985-11-03 00:00:00;550.0;0;1.2398;0
1985-11-04 00:00:00;548.0;0;1.2164;0
1985-11-05 00:00:00;550.0;0;1.2636;0
1985-11-06 00:00:00;562.0;0;1.5928;0
1985-11-07 00:00:00;569.0;0;1.8029;0
1985-11-08 00:00:00;576.0;0;2.0118;0
1985-11-09 00:00:00;569.0;0;1.8446;0
1985-11-10 00:00:00;587.0;0;2.3756;0
1985-11-11 00:00:00;626.0;0;3.5595;0
1985-11-12 00:00:00;605.0;0;3.013;0
1985-11-13 00:00:00;588.0;0;2.5357;0
1985-11-14 00:00:00;575.0;0;2.1757;0
1985-11-15 00:00:00;567.0;0;1.9654;0
1985-11-16 00:00:00;563.0;0;1.8685;0
1985-11-17 00:00:00;559.0;0;1.7774;0
1985-11-18 00:00:00;558.0;0;1.7567;0
1985-11-19 00:00:00;559.0;0;1.7976;0
1985-11-20 00:00:00;553.0;0;1.6484;0
1985-11-21 00:00:00;548.0;0;1.496;0
1985-11-22 00:00:00;548.0;0;1.5378;0
1985-11-23 00:00:00;549.0;0;1.5686;0
1985-11-24 00:00:00;548.0;0;1.572;0
1985-11-25 00:00:00;547.0;0;1.5691;0
1985-11-26 00:00:00;545.0;0;1.5654;0
1985-11-27 00:00:00;544.0;0;1.5442;0
1985-11-28 00:00:00;543.0;0;1.5842;0
1985-11-29 00:00:00;542.0;0;1.6252;0
1985-11-30 00:00:00;541.0;0;1.6222;0
1985-12-01 00:00:00;538.0;0;1.6065;0
1985-12-02 00:00:00;578.0;0;3.3886;0
1985-12-03 00:00:00;612.0;0;5.0261;0
1985-12-04 00:00:00;585.0;0;3.8736;0
1985-12-05 00:00:00;585.0;0;3.943;0
1985-12-06 00:00:00;600.0;0;4.7493;0
1985-12-07 00:00:00;613.0;0;5.4974;0
1985-12-08 00:00:00;595.0;0;4.6624;0
1985-12-09 00:00:00;586.0;0;4.2134;0
1985-12-10 00:00:00;600.0;0;4.9987;0
1985-12-11 00:00:00;585.0;0;4.2513;0
1985-12-12 00:00:00;573.0;0;3.6388;0
1985-12-13 00:00:00;574.0;0;3.6971;0
1985-12-14 00:00:00;582.0;0;4.1858;0
1985-12-15 00:00:00;574.0;0;3.7715;0
1985-12-16 00:00:00;571.0;0;3.6038;0
1985-12-17 00:00:00;569.0;0;3.543;0
1985-12-18 00:00:00;574.0;0;3.8638;0
1985-12-19 00:00:00;594.0;0;4.9508;0
1985-12-20 00:00:00;590.0;0;4.7273;0
1985-12-21 00:00:00;599.0;0;5.2518;0
1985-12-22 00:00:00;585.0;0;4.547;0
1985-12-23 00:00:00;574.0;0;3.9501;0
1985-12-24 00:00:00;568.0;0;3.6351;0
1985-12-25 00:00:00;566.0;0;3.4838;0
1985-12-26 00:00:00;566.0;0;3.5185;0
1985-12-27 00:00:00;559.0;0;3.1411;0
1985-12-28 00:00:00;555.0;0;2.9209;0
1985-12-29 00:00:00;552.0;0;2.7975;0
1985-12-30 00:00:00;549.0;0;2.6431;0
1985-12-31 00:00:00;550.0;0;2.7262;0
1986-01-01 00:00:00;546.0;0;2.5039;0
1986-01-02 00:00:00;544.0;0;2.4272;0
1986-01-03 00:00:00;543.0;0;2.3919;0
1986-01-04 00:00:00;542.0;0;2.3132;0
1986-01-05 00:00:00;541.0;0;2.2773;0
1986-01-06 00:00:00;541.0;0;2.2892;0
1986-01-07 00:00:00;540.0;0;2.2453;0
1986-01-08 00:00:00;538.0;0;2.1648;0
1986-01-09 00:00:00;538.0;0;2.1498;0
1986-01-10 00:00:00;536.0;0;2.062;0
1986-01-11 00:00:00;539.0;0;2.207;0
1986-01-12 00:00:00;563.0;0;3.5565;0
1986-01-13 00:00:00;611.0;0;6.4427;0
1986-01-14 00:00:00;608.0;0;6.2718;0
1986-01-15 00:00:00;609.0;0;6.328;0
1986-01-16 00:00:00;587.0;0;4.9692;0
1986-01-17 00:00:00;577.0;0;4.3533;0
1986-01-18 00:00:00;569.0;0;3.9182;0
1986-01-19 00:00:00;584.0;0;4.8178;0
1986-01-20 00:00:00;645.0;0;8.7744;0
1986-01-21 00:00:00;655.0;0;9.5972;0
1986-01-22 00:00:00;621.0;0;7.1439;0
1986-01-23 00:00:00;613.0;0;6.6291;0
1986-01-24 00:00:00;609.0;0;6.4023;0
1986-01-25 00:00:00;591.0;0;5.2825;0
1986-01-26 00:00:00;577.0;0;4.4;0
1986-01-27 00:00:00;568.0;0;3.9044;0
1986-01-28 00:00:00;565.0;0;3.703;0
1986-01-29 00:00:00;561.0;0;3.4724;0
1986-01-30 00:00:00;555.0;0;3.1543;0
1986-01-31 00:00:00;549.0;0;2.7848;0
1986-02-01 00:00:00;546.0;0;2.6577;0
1986-02-02 00:00:00;546.0;0;2.614;0
1986-02-03 00:00:00;543.0;0;2.4881;0
1986-02-04 00:00:00;544.0;0;2.5181;0
1986-02-05 00:00:00;543.0;0;2.4926;0
1986-02-06 00:00:00;541.0;0;2.3562;0
1986-02-07 00:00:00;539.0;0;2.2612;0
1986-02-08 00:00:00;537.0;0;2.1561;0
1986-02-09 00:00:00;536.0;0;2.0822;0
1986-02-10 00:00:00;535.0;0;2.0555;0
1986-02-11 00:00:00;534.0;0;1.9868;0
1986-02-12 00:00:00;534.0;0;1.9845;0
1986-02-13 00:00:00;533.0;0;1.9251;0
1986-02-14 00:00:00;530.0;0;1.7803;0
1986-02-15 00:00:00;528.0;0;1.6912;0
1986-02-16 00:00:00;527.0;0;1.635;0
1986-02-17 00:00:00;526.0;0;1.5768;0
1986-02-18 00:00:00;526.0;0;1.5618;0
1986-02-19 00:00:00;523.0;0;1.4297;0
1986-02-20 00:00:00;524.0;0;1.4827;0
1986-02-21 00:00:00;525.0;0;1.4962;0
1986-02-22 00:00:00;523.0;0;1.4235;0
1986-02-23 00:00:00;522.0;0;1.3408;0
1986-02-24 00:00:00;520.0;0;1.2841;0
1986-02-25 00:00:00;520.0;0;1.259;0
1986-02-26 00:00:00;520.0;0;1.2468;0
1986-02-27 00:00:00;518.0;0;1.1552;0
1986-02-28 00:00:00;518.0;0;1.1738;0
1986-03-01 00:00:00;518.0;0;1.1655;0
1986-03-02 00:00:00;518.0;0;1.1449;0
1986-03-03 00:00:00;517.0;0;1.112;0
1986-03-04 00:00:00;517.0;0;1.1305;0
1986-03-05 00:00:00;527.0;0;1.6401;0
1986-03-06 00:00:00;539.0;0;2.2923;0
1986-03-07 00:00:00;529.0;0;1.7092;0
1986-03-08 00:00:00;525.0;0;1.5319;0
1986-03-09 00:00:00;529.0;0;1.7043;0
1986-03-10 00:00:00;527.0;0;1.6287;0
1986-03-11 00:00:00;529.0;0;1.7325;0
1986-03-12 00:00:00;528.0;0;1.6696;0
1986-03-13 00:00:00;528.0;0;1.6912;0
1986-03-14 00:00:00;527.0;0;1.6263;0
1986-03-15 00:00:00;527.0;0;1.6005;0
1986-03-16 00:00:00;526.0;0;1.5597;0
1986-03-17 00:00:00;526.0;0;1.5661;0
1986-03-18 00:00:00;529.0;0;1.7163;0
1986-03-19 00:00:00;527.0;0;1.5999;0
1986-03-20 00:00:00;527.0;0;1.6436;0
1986-03-21 00:00:00;528.0;0;1.6954;0
1986-03-22 00:00:00;529.0;0;1.7149;0
1986-03-23 00:00:00;540.0;0;2.3415;0
1986-03-24 00:00:00;545.0;0;2.5591;0
1986-03-25 00:00:00;565.0;0;3.7192;0
1986-03-26 00:00:00;571.0;0;4.077;0
1986-03-27 00:00:00;561.0;0;3.4676;0
1986-03-28 00:00:00;570.0;0;4.0228;0
1986-03-29 00:00:00;574.0;0;4.226;0
1986-03-30 00:00:00;576.0;0;4.3551;0
1986-03-31 00:00:00;572.0;0;4.0978;0
1986-04-01 00:00:00;562.0;0;3.5251;0
1986-04-02 00:00:00;560.0;0;3.439;0
1986-04-03 00:00:00;553.0;0;3.0343;0
1986-04-04 00:00:00;547.0;0;2.7085;0
1986-04-05 00:00:00;543.0;0;2.4518;0
1986-04-06 00:00:00;538.0;0;2.1828;0
1986-04-07 00:00:00;534.0;0;1.9804;0
1986-04-08 00:00:00;531.0;0;1.8284;0
1986-04-09 00:00:00;532.0;0;1.9031;0
1986-04-10 00:00:00;529.0;0;1.7455;0
1986-04-11 00:00:00;527.0;0;1.6415;0
1986-04-12 00:00:00;527.0;0;1.6263;0
1986-04-13 00:00:00;526.0;0;1.5768;0
1986-04-14 00:00:00;526.0;0;1.5661;0
1986-04-15 00:00:00;525.0;0;1.5147;0
1986-04-16 00:00:00;526.0;0;1.5639;0
1986-04-17 00:00:00;525.0;0;1.5147;0
1986-04-18 00:00:00;526.0;0;1.5855;0
1986-04-19 00:00:00;530.0;0;1.7869;0
1986-04-20 00:00:00;530.0;0;1.7738;0
1986-04-21 00:00:00;528.0;0;1.6458;0
1986-04-22 00:00:00;533.0;0;1.9077;0
1986-04-23 00:00:00;531.0;0;1.8196;0
1986-04-24 00:00:00;529.0;0;1.7433;0
1986-04-25 00:00:00;528.0;0;1.6652;0
1986-04-26 00:00:00;526.0;0;1.5661;0
1986-04-27 00:00:00;524.0;0;1.4827;0
1986-04-28 00:00:00;524.0;0;1.4423;0
1986-04-29 00:00:00;522.0;0;1.3577;0
1986-04-30 00:00:00;522.0;0;1.345;0
1986-05-01 00:00:00;521.0;0;1.3114;0
1986-05-02 00:00:00;520.0;0;1.2528;0
1986-05-03 00:00:00;518.0;0;1.1759;0
1986-05-04 00:00:00;518.0;0;1.1387;0
1986-05-05 00:00:00;521.0;0;1.3178;0
1986-05-06 00:00:00;526.0;0;1.5375;0
1986-05-07 00:00:00;525.0;0;1.4934;0
1986-05-08 00:00:00;533.0;0;1.9376;0
1986-05-09 00:00:00;529.0;0;1.7153;0
1986-05-10 00:00:00;528.0;0;1.636;0
1986-05-11 00:00:00;526.0;0;1.5609;0
1986-05-12 00:00:00;526.0;0;1.5503;0
1986-05-13 00:00:00;525.0;0;1.4939;0
1986-05-14 00:00:00;523.0;0;1.4007;0
1986-05-15 00:00:00;524.0;0;1.4579;0
1986-05-16 00:00:00;534.0;0;1.9393;0
1986-05-17 00:00:00;527.0;0;1.5918;0
1986-05-18 00:00:00;526.0;0;1.4921;0
1986-05-19 00:00:00;525.0;0;1.4536;0
1986-05-20 00:00:00;525.0;0;1.431;0
1986-05-21 00:00:00;522.0;0;1.3021;0
1986-05-22 00:00:00;521.0;0;1.2292;0
1986-05-23 00:00:00;519.0;0;1.1616;0
1986-05-24 00:00:00;520.0;0;1.1783;0
1986-05-25 00:00:00;520.0;0;1.1719;0
1986-05-26 00:00:00;519.0;0;1.1406;0
1986-05-27 00:00:00;519.0;0;1.1071;0
1986-05-28 00:00:00;519.0;0;1.101;0
1986-05-29 00:00:00;519.0;0;1.0762;0
1986-05-30 00:00:00;518.0;0;1.0531;0
1986-05-31 00:00:00;518.0;0;1.0265;0
1986-06-01 00:00:00;518.0;0;1.0147;0
1986-06-02 00:00:00;518.0;0;1.0089;0
1986-06-03 00:00:00;518.0;0;1.0048;0
1986-06-04 00:00:00;522.0;0;1.1408;0
1986-06-05 00:00:00;521.0;0;1.1152;0
1986-06-06 00:00:00;526.0;0;1.2971;0
1986-06-07 00:00:00;529.0;0;1.4107;0
1986-06-08 00:00:00;528.0;0;1.3322;0
1986-06-09 00:00:00;527.0;0;1.253;0
1986-06-10 00:00:00;525.0;0;1.1458;0
1986-06-11 00:00:00;523.0;0;1.047;0
1986-06-12 00:00:00;523.0;0;0.9988;0
1986-06-13 00:00:00;523.0;0;0.9631;0
1986-06-14 00:00:00;522.0;0;0.9025;0
1986-06-15 00:00:00;523.0;0;0.8703;0
1986-06-16 00:00:00;524.0;0;0.8635;0
1986-06-17 00:00:00;524.0;0;0.8499;0
1986-06-18 00:00:00;530.0;0;0.9985;0
1986-06-19 00:00:00;530.0;0;0.944;0
1986-06-20 00:00:00;529.0;0;0.8955;0
1986-06-21 00:00:00;528.0;0;0.8495;0
1986-06-22 00:00:00;530.0;0;0.8566;0
1986-06-23 00:00:00;529.0;0;0.8086;0
1986-06-24 00:00:00;529.0;0;0.7872;0
1986-06-25 00:00:00;528.0;0;0.7543;0
1986-06-26 00:00:00;530.0;0;0.7656;0
1986-06-27 00:00:00;530.0;0;0.7435;0
1986-06-28 00:00:00;530.0;0;0.7445;0
1986-06-29 00:00:00;531.0;0;0.7378;0
1986-06-30 00:00:00;531.0;0;0.728;0
1986-07-01 00:00:00;532.0;0;0.7221;0
1986-07-02 00:00:00;532.0;0;0.7124;0
1986-07-03 00:00:00;533.0;0;0.7121;0
1986-07-04 00:00:00;534.0;0;0.7209;0
1986-07-05 00:00:00;538.0;0;0.7809;0
1986-07-06 00:00:00;544.0;0;0.8751;0
1986-07-07 00:00:00;540.0;0;0.7791;0
1986-07-08 00:00:00;539.0;0;0.756;0
1986-07-09 00:00:00;540.0;0;0.7512;0
1986-07-10 00:00:00;542.0;0;0.7778;0
1986-07-11 00:00:00;544.0;0;0.8069;0
1986-07-12 00:00:00;543.0;0;0.7662;0
1986-07-13 00:00:00;543.0;0;0.758;0
1986-07-14 00:00:00;542.0;0;0.7273;0
1986-07-15 00:00:00;541.0;0;0.6982;0
1986-07-16 00:00:00;543.0;0;0.709;0
1986-07-17 00:00:00;544.0;0;0.7151;0
1986-07-18 00:00:00;543.0;0;0.6892;0
1986-07-19 00:00:00;551.0;0;0.7917;0
1986-07-20 00:00:00;548.0;0;0.7361;0
1986-07-21 00:00:00;549.0;0;0.7254;0
1986-07-22 00:00:00;553.0;0;0.7669;0
1986-07-23 00:00:00;554.0;0;0.7645;0
1986-07-24 00:00:00;558.0;0;0.8007;0